This is the latest recevied weather packets stored in our database for station/object K6MBY. If no packets are shown the sender has not sent any weather packets the latest 10 day(s).
| Time | Temp. | Humidity | Pressure | Rain* | Wind** | Luminosity | Snow |
|---|---|---|---|---|---|---|---|
| 1777839778 | 20.56° C | 53% | 1016.8 hPa | 0 mm | - | 848 W/m² | - |
| 1777839475 | 20.56° C | 53% | 1016.7 hPa | 0 mm | - | 849 W/m² | - |
| 1777839173 | 21.67° C | 49% | 1016.8 hPa | 0 mm | - | 850 W/m² | - |
| 1777838869 | 21.11° C | 52% | 1016.8 hPa | 0 mm | - | 851 W/m² | - |
| 1777838565 | 21.67° C | 47% | 1016.8 hPa | 0 mm | - | 851 W/m² | - |
| 1777838263 | 21.11° C | 52% | 1016.8 hPa | 0 mm | - | 852 W/m² | - |
| 1777837959 | 21.11° C | 51% | 1017.2 hPa | 0 mm | - | 851 W/m² | - |
| 1777837657 | 21.11° C | 52% | 1017.1 hPa | 0 mm | - | 851 W/m² | - |
| 1777837347 | 21.11° C | 50% | 1017.2 hPa | 0 mm | - | 849 W/m² | - |
| 1777837044 | 21.11° C | 48% | 1017.3 hPa | 0 mm | - | 848 W/m² | - |
| 1777836740 | 20.56° C | 48% | 1017.4 hPa | 0 mm | - | 846 W/m² | - |
| 1777836436 | 21.11° C | 48% | 1017.5 hPa | 0 mm | - | 844 W/m² | - |
| 1777836131 | 20.56° C | 48% | 1017.5 hPa | 0 mm | - | 840 W/m² | - |
| 1777835828 | 20.56° C | 51% | 1017.5 hPa | 0 mm | - | 837 W/m² | - |
| 1777835525 | 20.56° C | 51% | 1017.4 hPa | 0 mm | - | 833 W/m² | - |
| 1777835222 | 21.11° C | 51% | 1017.6 hPa | 0 mm | - | 829 W/m² | - |
| 1777834919 | 21.11° C | 48% | 1017.5 hPa | 0 mm | - | 823 W/m² | - |
| 1777834616 | 21.11° C | 48% | 1017.7 hPa | 0 mm | - | 818 W/m² | - |
| 1777834311 | 20.56° C | 48% | 1017.5 hPa | 0 mm | - | 812 W/m² | - |
| 1777834005 | 21.11° C | 51% | 1017.7 hPa | 0 mm | - | 807 W/m² | - |
| 1777833702 | 20° C | 56% | 1017.7 hPa | 0 mm | - | 802 W/m² | - |
| 1777833393 | 20° C | 56% | 1017.9 hPa | 0 mm | - | 795 W/m² | - |
| 1777833091 | 20° C | 58% | 1017.7 hPa | 0 mm | - | 788 W/m² | - |
| 1777832789 | 19.44° C | 56% | 1018.1 hPa | 0 mm | - | 781 W/m² | - |
| 1777832487 | 19.44° C | 55% | 1017.9 hPa | 0 mm | - | 774 W/m² | - |
* Rain latest hour (hover to see other rain measurements)
** Current wind speed in m/s (hover to see current wind gust speed)